TimeMDT,TemperatureF,Dew PointF,Humidity,Sea Level PressureIn,VisibilityMPH,Wind Direction,Wind SpeedMPH,Gust SpeedMPH,PrecipitationIn,Events,Conditions,WindDirDegrees,DateUTC
5:00 AM,24.8,23.0,93,30.01,15.0,West,3.5,-,N/A,,Mostly Cloudy,280,2013-04-02 11:00:00
6:00 AM,26,23,84,30.00,15,NNW,4.6,,,,Mostly Cloudy,330,2013-04-02 12:00:00
6:00 AM,24.8,23.0,93,29.99,15.0,NW,4.6,-,N/A,,Mostly Cloudy,310,2013-04-02 12:00:00
7:00 AM,26.6,23.0,86,29.99,15.0,NNW,6.9,-,N/A,,Mostly Cloudy,330,2013-04-02 13:00:00
8:00 AM,26.6,23.0,86,30.00,30.0,WSW,4.6,-,N/A,,Mostly Cloudy,250,2013-04-02 14:00:00
9:00 AM,33.8,28.4,81,30.00,30.0,NNW,4.6,-,N/A,,Mostly Cloudy,330,2013-04-02 15:00:00
11:00 AM,57.2,30.2,36,29.92,30.0,WNW,6.9,-,N/A,,Mostly Cloudy,290,2013-04-02 17:00:00
11:05 AM,59.0,24.8,27,29.92,30.0,West,20.7,-,N/A,,Mostly Cloudy,280,2013-04-02 17:05:00
12:00 PM,61,26,15,29.90,28,West,18.4,,,,Mostly Cloudy,270,2013-04-02 18:00:00
12:00 PM,60.8,24.8,25,29.90,30.0,West,19.6,26.5,N/A,,Mostly Cloudy,270,2013-04-02 18:00:00
1:00 PM,62.6,24.8,24,29.90,30.0,WNW,17.3,24.2,N/A,,Mostly Cloudy,290,2013-04-02 19:00:00
2:00 PM,64.4,23.0,21,29.89,30.0,WNW,11.5,18.4,N/A,,Mostly Cloudy,300,2013-04-02 20:00:00
3:00 PM,64.4,23.0,21,29.88,30.0,WNW,11.5,21.9,N/A,,Mostly Cloudy,290,2013-04-02 21:00:00
4:00 PM,60.8,24.8,25,29.88,30.0,West,19.6,25.3,N/A,,Mostly Cloudy,280,2013-04-02 22:00:00
5:00 PM,59.0,24.8,27,29.88,30.0,WNW,17.3,-,N/A,,Mostly Cloudy,290,2013-04-02 23:00:00
6:00 PM,62,25,14,29.87,28,West,20.7,,,,Partly Cloudy,280,2013-04-03 00:00:00
6:00 PM,62.6,24.8,24,29.87,30.0,West,20.7,27.6,N/A,,Mostly Cloudy,280,2013-04-03 00:00:00
7:00 PM,57.2,24.8,29,29.88,30.0,West,19.6,-,N/A,,Mostly Cloudy,280,2013-04-03 01:00:00
8:00 PM,53.6,24.8,33,29.90,30.0,West,18.4,25.3,N/A,,Mostly Cloudy,270,2013-04-03 02:00:00
9:00 PM,48.2,24.8,40,29.91,20.0,West,17.3,-,N/A,,Mostly Cloudy,260,2013-04-03 03:00:00
10:00 PM,44.6,24.8,46,29.91,15.0,West,13.8,-,N/A,,Partly Cloudy,280,2013-04-03 04:00:00